Simultaneous Nadir Overpasses (SNOs) Predictions

Prediction of SNOs between LANDSAT-8 and NOAA-19 Satellite Orbit:

Table of predicted SNOs for the next 14.0 days since TLE Epoch: 7/3/2021
Index Date (LANDSAT-8) Time (LANDSAT-8) Lat,Lon (LANDSAT-8) SZA (LANDSAT-8 ) Date (NOAA-19) Time (NOAA-19) Lat,Lon (NOAA-19) SZA (NOAA-19 ) Distance(km) Time Diff (sec)
1 07/04/2021 08:33:32 80.43, 83.19 58.97 07/04/2021 08:33:04 80.44, 83.02 58.95 3.17 28
2 07/04/2021 09:22:59 -80.43,-109.21 121.04 07/04/2021 09:24:03 -80.42,-109.34 121.04 2.74 64
3 07/06/2021 14:07:16 -80.45, 179.96 120.79 07/06/2021 14:06:13 -80.44, 179.83 120.84 3.05 63
4 07/06/2021 14:56:43 80.43, -12.67 59.17 07/06/2021 14:57:12 80.43, -12.74 59.18 1.32 29
5 07/08/2021 20:30:28 -80.41, 83.79 120.61 07/08/2021 20:30:22 -80.43, 83.91 120.59 3.08 6
6 07/11/2021 02:04:11 80.44,-179.42 59.70 07/11/2021 02:03:29 80.43,-179.28 59.70 2.62 42
7 07/11/2021 02:53:38 -80.44, -11.76 120.29 07/11/2021 02:54:30 -80.42, -11.69 120.29 2.75 52
8 07/13/2021 07:37:58 -80.36, -83.58 120.12 07/13/2021 07:36:44 -80.51, -83.98 120.06 17.56 74
9 07/13/2021 08:27:22 80.42, 84.67 59.99 07/13/2021 08:27:38 80.45, 84.54 60.01 3.35 16
10 07/15/2021 14:01:06 -80.45,-178.54 119.64 07/15/2021 14:00:49 -80.44,-178.63 119.65 1.55 17



Historial Predications of SNOs between LANDSAT-8 and NOAA-19
